Estación Meteorológica Peña el Pijo (Robertgarden) [ 02/19/20 14:39:23 CET ]

Fecha Hora Presion(HPa) Temp (°C) Humedad % Rocio (°C) Viento ( m/s) Direccion Lluvia 1Hora(mm) Lluvia 24H(mm) LLuvia Total(mm)
2020-Jan-29 01:09:27 1012.700 - - - - N     3988.88
2020-Jan-29 02:10:08 1012.300 - - - - N     39.88
2020-Jan-29 03:09:51 1012.400 - - - - N     39.88
2020-Jan-29 04:13:09 1012.100 - - - - N     39.88
2020-Jan-29 05:09:32 1012.100 - - - - N     39.88
2020-Jan-29 06:09:28 1012.200 - - - - N     39.88
2020-Jan-29 07:09:15 1012.700 - - - - N     39.88
2020-Jan-29 08:08:59 1012.600 - - - - N     39.88
2020-Jan-29 09:08:49 1013.300 - - - - N     39.88
2020-Jan-29 10:09:10 1013.300 - - - - N     39.88
2020-Jan-29 11:08:59 1013.500 - - - - N     39.88
2020-Jan-29 12:08:56 1013.500 - - - - N     39.88
2020-Jan-29 13:09:12 1012.700 - - - - N     39.88
2020-Jan-29 14:09:12 1011.900 - - - - N     39.88
2020-Jan-29 15:09:12 1011.700 - - - - N     39.88
2020-Jan-29 16:09:12 1011.500 - - - - N     39.88
2020-Jan-29 17:09:03 1011.600 - - - - N     39.88
2020-Jan-29 18:09:12 1011.800 - - - - N     39.88
2020-Jan-29 19:09:21 1012.700 - - - - N     39.88
2020-Jan-29 20:09:26 1012.900 - - - - N     39.88
2020-Jan-29 21:09:06 1013.200 - - - - N     39.88
2020-Jan-29 22:09:20 1013.700 - - - - N     39.88
2020-Jan-29 23:09:11 1013.700 - - - - N     39.88

Temperatura Máxima:    Temperatura Mínima:
Presión Máxima:1013.700 Hpa    Presión Mínima:1011.500 Hpa


Volver